TimeCDT,TemperatureF,Dew PointF,Humidity,Sea Level PressureIn,VisibilityMPH,Wind Direction,Wind SpeedMPH,Gust SpeedMPH,PrecipitationIn,Events,Conditions,WindDirDegrees,DateUTC
12:15 AM,39.2,28.4,65,29.91,10.0,WSW,13.8,21.9,N/A,,Overcast,250,2012-10-05 05:15:00
12:35 AM,39.2,28.4,65,29.91,10.0,WSW,15.0,26.5,N/A,,Overcast,250,2012-10-05 05:35:00
12:55 AM,37.4,28.4,70,29.91,10.0,West,12.7,20.7,N/A,,Overcast,260,2012-10-05 05:55:00
1:15 AM,37.4,28.4,70,29.91,10.0,WSW,10.4,23.0,N/A,,Overcast,250,2012-10-05 06:15:00
1:35 AM,37.4,28.4,70,29.90,10.0,WSW,10.4,20.7,N/A,,Overcast,250,2012-10-05 06:35:00
1:55 AM,37.4,28.4,70,29.91,10.0,WSW,10.4,24.2,N/A,,Overcast,250,2012-10-05 06:55:00
2:15 AM,37.4,28.4,70,29.90,10.0,West,12.7,21.9,N/A,,Overcast,260,2012-10-05 07:15:00
2:35 AM,37.4,26.6,65,29.90,10.0,West,18.4,31.1,N/A,,Mostly Cloudy,270,2012-10-05 07:35:00
3:15 AM,37.4,28.4,70,29.89,10.0,West,11.5,26.5,N/A,,Overcast,260,2012-10-05 08:15:00
3:35 AM,37.4,28.4,70,29.89,10.0,West,16.1,23.0,N/A,,Overcast,270,2012-10-05 08:35:00
3:55 AM,37.4,28.4,70,29.90,10.0,West,11.5,24.2,N/A,,Overcast,260,2012-10-05 08:55:00
4:15 AM,37.4,28.4,70,29.90,10.0,WSW,10.4,24.2,N/A,,Overcast,250,2012-10-05 09:15:00
4:35 AM,37.4,28.4,70,29.90,10.0,WSW,15.0,27.6,N/A,,Overcast,250,2012-10-05 09:35:00
4:55 AM,37.4,28.4,70,29.90,10.0,West,15.0,21.9,N/A,,Overcast,260,2012-10-05 09:55:00
5:15 AM,37.4,28.4,70,29.89,10.0,WSW,11.5,24.2,N/A,,Overcast,250,2012-10-05 10:15:00
5:35 AM,37.4,28.4,70,29.89,10.0,WSW,13.8,26.5,N/A,,Overcast,250,2012-10-05 10:35:00
5:55 AM,35.6,28.4,75,29.89,10.0,West,10.4,17.3,N/A,,Overcast,270,2012-10-05 10:55:00
6:15 AM,35.6,28.4,75,29.89,10.0,WSW,17.3,25.3,N/A,,Overcast,250,2012-10-05 11:15:00
6:35 AM,35.6,26.6,70,29.89,10.0,West,17.3,26.5,N/A,,Overcast,260,2012-10-05 11:35:00
6:55 AM,35.6,26.6,70,29.89,10.0,West,12.7,21.9,N/A,,Overcast,260,2012-10-05 11:55:00
7:15 AM,35.6,28.4,75,29.89,10.0,WSW,11.5,21.9,N/A,,Overcast,250,2012-10-05 12:15:00
7:35 AM,35.6,28.4,75,29.89,10.0,West,11.5,27.6,N/A,,Overcast,260,2012-10-05 12:35:00
7:55 AM,35.6,28.4,75,29.89,10.0,West,12.7,24.2,N/A,,Overcast,270,2012-10-05 12:55:00
8:15 AM,35.6,26.6,70,29.89,10.0,West,12.7,20.7,N/A,,Overcast,260,2012-10-05 13:15:00
8:35 AM,35.6,26.6,70,29.89,10.0,WSW,12.7,23.0,N/A,,Overcast,250,2012-10-05 13:35:00
8:55 AM,35.6,26.6,70,29.89,10.0,West,11.5,23.0,N/A,,Overcast,270,2012-10-05 13:55:00
9:15 AM,35.6,26.6,70,29.90,10.0,West,11.5,21.9,N/A,,Overcast,260,2012-10-05 14:15:00
9:35 AM,37.4,26.6,65,29.90,10.0,West,11.5,24.2,N/A,,Overcast,270,2012-10-05 14:35:00
10:15 AM,37.4,26.6,65,29.90,10.0,West,10.4,26.5,N/A,,Overcast,270,2012-10-05 15:15:00
10:35 AM,37.4,24.8,60,29.91,10.0,West,18.4,28.8,N/A,,Overcast,280,2012-10-05 15:35:00
10:55 AM,37.4,26.6,65,29.91,10.0,West,17.3,24.2,N/A,,Overcast,260,2012-10-05 15:55:00
11:15 AM,37.4,26.6,65,29.90,10.0,WSW,9.2,24.2,N/A,,Overcast,250,2012-10-05 16:15:00
11:35 AM,37.4,26.6,65,29.91,10.0,West,17.3,21.9,N/A,,Overcast,260,2012-10-05 16:35:00
12:15 PM,37.4,24.8,60,29.90,10.0,West,10.4,23.0,N/A,,Overcast,280,2012-10-05 17:15:00
12:35 PM,39.2,24.8,56,29.91,10.0,West,15.0,28.8,N/A,,Overcast,260,2012-10-05 17:35:00
12:55 PM,39.2,24.8,56,29.90,10.0,West,12.7,26.5,N/A,,Overcast,280,2012-10-05 17:55:00
1:15 PM,37.4,26.6,65,29.89,10.0,WSW,10.4,19.6,N/A,,Overcast,240,2012-10-05 18:15:00
1:35 PM,37.4,24.8,60,29.89,10.0,West,12.7,20.7,N/A,,Overcast,260,2012-10-05 18:35:00
1:55 PM,37.4,24.8,60,29.89,10.0,West,18.4,25.3,N/A,,Overcast,260,2012-10-05 18:55:00
2:15 PM,39.2,24.8,56,29.89,10.0,West,15.0,19.6,N/A,,Overcast,260,2012-10-05 19:15:00
2:35 PM,39.2,24.8,56,29.89,10.0,West,8.1,19.6,N/A,,Overcast,270,2012-10-05 19:35:00
2:55 PM,37.4,24.8,60,29.90,10.0,West,10.4,20.7,N/A,,Overcast,280,2012-10-05 19:55:00
3:15 PM,37.4,24.8,60,29.90,10.0,West,13.8,26.5,N/A,,Overcast,260,2012-10-05 20:15:00
3:35 PM,37.4,24.8,60,29.89,10.0,West,16.1,24.2,N/A,,Overcast,280,2012-10-05 20:35:00
3:55 PM,37.4,24.8,60,29.90,10.0,West,9.2,21.9,N/A,,Overcast,270,2012-10-05 20:55:00
4:15 PM,37.4,26.6,65,29.89,10.0,WNW,10.4,-,N/A,,Overcast,290,2012-10-05 21:15:00
4:35 PM,37.4,24.8,60,29.90,10.0,West,13.8,23.0,N/A,,Overcast,270,2012-10-05 21:35:00
4:55 PM,37.4,24.8,60,29.91,10.0,WSW,8.1,-,N/A,,Overcast,250,2012-10-05 21:55:00
5:15 PM,37.4,24.8,60,29.91,10.0,WSW,11.5,18.4,N/A,,Overcast,250,2012-10-05 22:15:00
5:35 PM,37.4,24.8,60,29.91,10.0,West,10.4,18.4,N/A,,Overcast,260,2012-10-05 22:35:00
5:55 PM,37.4,26.6,65,29.91,10.0,West,10.4,18.4,N/A,,Overcast,270,2012-10-05 22:55:00
6:15 PM,37.4,26.6,65,29.91,10.0,West,10.4,19.6,N/A,,Overcast,280,2012-10-05 23:15:00
6:35 PM,37.4,26.6,65,29.91,10.0,West,11.5,21.9,N/A,,Overcast,260,2012-10-05 23:35:00
6:55 PM,37.4,26.6,65,29.91,10.0,West,10.4,16.1,N/A,,Overcast,270,2012-10-05 23:55:00
7:15 PM,37.4,26.6,65,29.91,10.0,West,8.1,17.3,N/A,,Overcast,260,2012-10-06 00:15:00
7:35 PM,37.4,26.6,65,29.91,10.0,West,8.1,17.3,N/A,,Overcast,270,2012-10-06 00:35:00
7:55 PM,37.4,26.6,65,29.91,10.0,West,10.4,18.4,N/A,,Overcast,270,2012-10-06 00:55:00
8:15 PM,37.4,26.6,65,29.91,10.0,WNW,11.5,23.0,N/A,,Overcast,290,2012-10-06 01:15:00
8:35 PM,35.6,26.6,70,29.91,10.0,West,10.4,24.2,N/A,,Overcast,260,2012-10-06 01:35:00
8:55 PM,35.6,28.4,75,29.91,10.0,West,12.7,27.6,N/A,,Overcast,260,2012-10-06 01:55:00
9:15 PM,35.6,28.4,75,29.91,10.0,West,9.2,19.6,N/A,,Overcast,270,2012-10-06 02:15:00
9:35 PM,35.6,30.2,81,29.91,10.0,West,12.7,18.4,N/A,,Overcast,280,2012-10-06 02:35:00
9:55 PM,35.6,30.2,81,29.91,10.0,West,10.4,23.0,N/A,,Overcast,270,2012-10-06 02:55:00
10:15 PM,35.6,30.2,81,29.91,10.0,West,10.4,18.4,N/A,Snow,Light Snow,270,2012-10-06 03:15:00
10:35 PM,33.8,32.0,93,29.91,10.0,West,10.4,17.3,N/A,Snow,Light Snow,270,2012-10-06 03:35:00
10:55 PM,33.8,32.0,93,29.91,10.0,West,9.2,17.3,N/A,,Overcast,280,2012-10-06 03:55:00
11:35 PM,33.8,32.0,93,29.91,4.0,West,8.1,-,N/A,Snow,Light Snow,280,2012-10-06 04:35:00
11:55 PM,33.8,32.0,93,29.92,4.0,WNW,6.9,-,N/A,Snow,Light Snow,290,2012-10-06 04:55:00